EW3533 Weather Reports


Display with metric or nautical units.
time (UTC)temp
F
wind
direction
speed
MPH
gust
MPH
rain 1hr
in
rain 24hr
in
rain mn
in
humidity
%
barometer
mb
20260903191555 70 46 1.0 2.0 0.27 0.78 0.56 93 1013.9
20260903190045 70 34 2.0 6.0 0.53 0.76 0.55 92 1014.1
20260903184544 71 355 1.0 8.0 0.45 0.67 0.46 92 1014.7
20260903183103 72 323 2.0 3.0 0.28 0.51 0.30 91 1013.3
20260903181542 73 323 1.0 5.0 0.28 0.51 0.30 90 1013.3
20260903180040 75 274 2.0 6.0 0.01 0.23 0.02 91 1012.8
20260903174539 75 138 1.0 3.0 0.00 0.22 0.01 90 1011.7
20260903173039 75 138 1.0 3.0 0.00 0.22 0.01 90 1011.7
20260903171537 76 138 1.0 3.0 0.00 0.22 0.01 91 1012.2
20260903170038 76 138 0.0 3.0 0.01 0.22 0.01 91 1012.2
20260903164536 76 138 2.0 4.0 0.01 0.22 0.01 92 1012.2
20260903163035 76 229 0.0 3.0 0.01 0.22 0.01 92 1012.5
20260903161550 76 230 0.0 2.0 0.01 0.22 0.01 93 1012.8
20260903160032 75 160 0.0 3.0 0.00 0.21 0.00 94 1013.0
20260903154527 74 61 0.0 2.0 0.00 0.21 0.00 94 1013.3
20260903153027 73 58 0.0 2.0 0.00 0.21 0.00 94 1013.6
20260903151524 74 173 2.0 3.0 0.00 0.21 0.00 95 1013.3
20260903150021 73 174 0.0 4.0 0.00 0.21 0.00 94 1013.2
20260903144525 72 94 0.0 1.0 0.00 0.21 0.00 94 1013.1
20260903143021 72 94 1.0 3.0 0.00 0.21 0.00 95 1012.6
20260903141516 72 86 0.0 2.0 0.00 0.21 0.00 95 1012.5
20260903140017 71 86 1.0 2.0 0.00 0.21 0.00 94 1012.7
20260903134515 72 87 0.0 2.0 0.00 0.21 0.00 94 1012.9
20260903133019 71 86 1.0 3.0 0.00 0.21 0.00 95 1012.9
20260903131521 71 88 0.0 3.0 0.00 0.21 0.00 94 1012.9
20260903130013 71 344 1.0 3.0 0.00 0.21 0.00 94 1013.0
20260903124515 71 344 0.0 3.0 0.00 0.21 0.00 94 1013.1
20260903123012 71 344 0.0 4.0 0.00 0.21 0.00 94 1013.1
20260903121530 71 345 1.0 3.0 0.00 0.21 0.00 94 1013.1
20260903120010 70 11 1.0 3.0 0.00 0.21 0.00 94 1013.1
20260903114509 71 153 1.0 3.0 0.00 0.21 0.00 94 1013.0
20260903113010 70 154 0.0 2.0 0.00 0.21 0.00 94 1012.9
20260903111507 70 154 0.0 1.0 0.00 0.21 0.00 94 1012.7
20260903110005 70 154 0.0 1.0 0.00 0.21 0.00 94 1012.6
20260903104504 70 154 0.0 0.0 0.00 0.21 0.00 94 1012.5
20260903103003 70 154 0.0 0.0 0.00 0.21 0.00 94 1012.4
20260903101501 69 154 0.0 0.0 0.00 0.21 0.00 94 1012.3
20260903100100 69 154 0.0 1.0 0.00 0.21 0.00 94 1012.3
20260903100003 69 154 0.0 1.0 0.00 0.21 0.00 94 1012.3
20260903094609 69 154 0.0 2.0 0.00 0.21 0.00 94 1012.1
20260903093103 68 154 1.0 2.0 0.00 0.21 0.00 94 1012.2
20260903091604 68 152 0.0 1.0 0.00 0.21 0.00 94 1012.1
20260903090055 68 152 0.0 0.0 0.00 0.21 0.00 94 1011.9
20260903084554 68 152 0.0 0.0 0.00 0.22 0.00 94 1011.8
20260903083058 68 152 0.0 0.0 0.00 0.22 0.00 93 1011.9
20260903081552 69 152 0.0 0.0 0.00 0.22 0.00 94 1011.9
20260903080050 69 152 0.0 0.0 0.00 0.22 0.00 94 1011.8
20260903074548 68 152 0.0 0.0 0.00 0.22 0.00 93 1011.8
20260903073105 69 152 0.0 0.0 0.00 0.22 0.00 93 1011.7
20260903071546 69 152 0.0 0.0 0.00 0.22 0.00 93 1011.8
20260903070045 69 151 0.0 0.0 0.00 0.22 0.00 93 1011.8
20260903064553 69 152 0.0 0.0 0.00 0.22 0.00 93 1011.8
20260903063044 69 152 0.0 0.0 0.00 0.22 0.00 93 1011.8
20260903061542 70 152 0.0 1.0 0.00 0.22 0.00 93 1011.8
20260903060040 71 152 0.0 0.0 0.00 0.22 0.00 93 1011.8
20260903054539 71 152 0.0 0.0 0.00 0.22 0.00 93 1011.8
20260903053036 71 152 0.0 0.0 0.00 0.22 0.00 93 1011.8
20260903051535 71 152 0.0 1.0 0.00 0.22 0.00 93 1011.7
20260903050033 71 152 0.0 0.0 0.00 0.22 0.00 93 1011.6
20260903044530 72 152 0.0 0.0 0.00 0.22 0.00 93 1011.5
20260903043029 72 152 0.0 2.0 0.00 0.22 0.00 93 1011.5
20260903041526 72 152 0.0 1.0 0.00 0.22 0.00 93 1011.4
20260903040024 72 152 0.0 1.0 0.00 0.22 0.00 93 1011.1
20260903034521 72 152 1.0 2.0 0.00 0.22 0.22 93 1010.9
20260903033020 71 152 0.0 0.0 0.00 0.22 0.22 92 1010.7
20260903031519 72 152 0.0 1.0 0.00 0.22 0.22 92 1010.7
20260903030018 72 152 0.0 0.0 0.00 0.22 0.22 92 1010.7
20260903024516 73 152 0.0 0.0 0.00 0.22 0.22 92 1010.4
20260903023015 73 152 0.0 0.0 0.00 0.22 0.22 92 1010.8
20260903021515 73 152 0.0 1.0 0.00 0.22 0.22 92 1011.0
20260903020030 74 152 0.0 0.0 0.00 0.22 0.22 92 1011.2
20260903014511 74 152 0.0 1.0 0.00 0.22 0.22 92 1011.2
20260903013016 74 152 0.0 1.0 0.00 0.22 0.22 92 1011.1
20260903011513 74 152 0.0 0.0 0.00 0.22 0.22 91 1011.2
20260903010010 74 152 0.0 0.0 0.00 0.22 0.22 91 1010.8
20260903004509 74 152 0.0 0.0 0.00 0.22 0.22 90 1010.7
20260903003009 75 152 0.0 0.0 0.00 0.22 0.22 90 1010.6
20260903001508 75 152 0.0 0.0 0.00 0.22 0.22 90 1010.6
20260903000010 76 152 0.0 0.0 0.00 0.22 0.22 89 1010.6
20260902234507 76 152 0.0 1.0 0.00 0.22 0.22 89 1010.6
20260902233011 77 152 0.0 1.0 0.00 0.22 0.22 89 1010.6
20260902231507 77 152 0.0 1.0 0.00 0.22 0.22 89 1010.7
20260902230006 77 152 0.0 0.0 0.00 0.22 0.22 89 1010.5
20260902224506 76 152 0.0 2.0 0.00 0.22 0.22 88 1010.4
20260902223005 76 151 0.0 2.0 0.00 0.22 0.22 89 1010.4
20260902221504 76 151 1.0 6.0 0.02 0.22 0.22 88 1010.7
20260902220004 76 24 0.0 3.0 0.21 0.22 0.22 87 1010.1
20260902214503 77 28 1.0 8.0 0.21 0.22 0.22 86 1009.8
20260902213002 76 335 3.0 8.0 0.21 0.22 0.22 84 1009.4
20260902211600 78 279 6.0 23.0 0.19 0.20 0.20 78 1009.8
20260902210058 80 360 3.0 8.0 0.00 0.01 0.01 78 1010.3
20260902204634 80 343 4.0 8.0 0.00 0.01 0.01 79 1010.4
20260902203055 79 342 4.0 6.0 0.00 0.01 0.01 83 1010.5
20260902201555 78 15 1.0 4.0 0.00 0.01 0.01 84 1010.1
20260902200055 78 44 3.0 9.0 0.00 0.01 0.01 82 1010.5
20260902194552 79 11 6.0 12.0 0.00 0.01 0.01 77 1010.9
20260902193051 87 302 5.0 17.0 0.00 0.01 0.01 73 1011.1